This is the latest recevied weather packets stored in our database for station/object N3AVN. If no packets are shown the sender has not sent any weather packets the latest 10 day(s).
| Time | Temp. | Humidity | Pressure | Rain* | Wind** | Luminosity | Snow |
|---|---|---|---|---|---|---|---|
| 1777727638 | 11.67° C | 88% | 1010.4 hPa | 0 mm | - | 481 W/m² | - |
| 1777727335 | 11.11° C | 92% | 1010.4 hPa | 0 mm | - | 143 W/m² | - |
| 1777727032 | 10.56° C | 94% | 1010.3 hPa | 0 mm | - | 445 W/m² | - |
| 1777726729 | 10° C | 97% | 1010.6 hPa | 0 mm | - | 489 W/m² | - |
| 1777726427 | 9.44° C | 97% | 1010.6 hPa | 0 mm | - | 186 W/m² | - |
| 1777726123 | 8.89° C | 98% | 1010.4 hPa | 0 mm | - | 149 W/m² | - |
| 1777725820 | 9.44° C | 98% | 1010.4 hPa | 0 mm | - | 97 W/m² | - |
| 1777725518 | 8.89° C | 98% | 1010.8 hPa | 0 mm | - | 89 W/m² | - |
| 1777725215 | 8.89° C | 98% | 1010.5 hPa | 0 mm | - | 105 W/m² | - |
| 1777724912 | 8.89° C | 98% | 1010.5 hPa | 0 mm | - | 97 W/m² | - |
| 1777724608 | 8.89° C | 98% | 1010.6 hPa | 0 mm | - | 71 W/m² | - |
| 1777724307 | 8.89° C | 98% | 1010.8 hPa | 0 mm | - | 38 W/m² | - |
| 1777724004 | 8.89° C | 98% | 1010.8 hPa | 0 mm | - | 29 W/m² | - |
| 1777723700 | 8.89° C | 98% | 1010.8 hPa | 0 mm | - | 29 W/m² | - |
| 1777723397 | 8.89° C | 99% | 1010.7 hPa | 0 mm | - | 31 W/m² | - |
| 1777723095 | 8.89° C | 99% | 1010.7 hPa | 0 mm | - | 38 W/m² | - |
| 1777722792 | 8.89° C | 99% | 1010.6 hPa | 0 mm | - | 35 W/m² | - |
| 1777722488 | 8.89° C | 99% | 1010.6 hPa | 0 mm | - | 109 W/m² | - |
| 1777722184 | 8.89° C | 99% | 1010.5 hPa | 0 mm | - | 79 W/m² | - |
| 1777721882 | 8.33° C | 99% | 1010.6 hPa | 0 mm | - | 59 W/m² | - |
| 1777721579 | 8.33° C | 99% | 1010.7 hPa | 0 mm | - | 61 W/m² | - |
| 1777721277 | 8.33° C | 99% | 1010.8 hPa | 0 mm | - | 42 W/m² | - |
| 1777720975 | 8.33° C | 99% | 1010.7 hPa | 0 mm | - | 18 W/m² | - |
| 1777720672 | 8.33° C | 99% | 1011 hPa | 0 mm | - | 17 W/m² | - |
| 1777720369 | 8.33° C | 99% | 1011.1 hPa | 0.51 mm | - | 35 W/m² | - |
* Rain latest hour (hover to see other rain measurements)
** Current wind speed in m/s (hover to see current wind gust speed)